MESHWX-2 Weather Reports


time (UTC)temp
C
wind
direction
speed
KPH
gust
KPH
rain 1hr
cm
rain 24hr
cm
rain mn
cm
humidity
%
barometer
mb
20260906062704 17 0.0 0.0 0.00 0.00 0.00 42 887.5
20260906062652 17 0.0 0.0 0.00 0.00 0.00 43 887.5
20260906055104 17 0.0 0.0 0.00 0.00 0.00 43 887.5
20260906055051 17 0.0 0.0 0.00 0.00 0.00 42 887.6
20260906051603 17 0.0 0.0 0.00 0.00 0.00 42 887.6
20260906051552 16 0.0 0.0 0.00 0.00 0.00 43 887.3
20260906044103 16 0.0 0.0 0.00 0.00 0.00 43 887.3
20260906044050 16 0.0 0.0 0.00 0.00 0.00 42 887.0
20260906040504 16 0.0 0.0 0.00 0.00 0.00 42 887.0
20260906040450 17 0.0 0.0 0.00 0.00 0.00 42 886.4
20260906033536 17 0.0 0.0 0.00 0.00 0.00 42 886.4
20260906032902 17 0.0 0.0 0.00 0.00 0.00 42 886.4
20260906032849 17 0.0 0.0 0.00 0.00 0.00 42 886.3
20260906025502 17 0.0 0.0 0.00 0.00 0.00 42 886.3
20260906025448 18 0.0 0.0 0.00 0.00 0.00 42 885.9
20260906022101 18 0.0 0.0 0.00 0.00 0.00 42 885.9
20260906022047 18 0.0 0.0 0.00 0.00 0.00 42 886.0
20260906014901 18 0.0 0.0 0.00 0.00 0.00 42 886.0
20260906014846 18 0.0 0.0 0.00 0.00 0.00 42 885.9
20260906011500 18 0.0 0.0 0.00 0.00 0.00 42 885.9
20260906011446 18 0.0 0.0 0.00 0.00 0.00 41 885.8
20260906004000 18 0.0 0.0 0.00 0.00 0.00 41 885.8
20260906003945 18 0.0 0.0 0.00 0.00 0.00 41 885.7
20260906000601 18 0.0 0.0 0.00 0.00 0.00 41 885.7
20260906000544 18 0.0 0.0 0.00 0.00 0.00 42 885.9
20260905233159 18 0.0 0.0 0.00 0.00 0.00 42 885.9
20260905233143 19 0.0 0.0 0.00 0.00 0.00 42 885.8
20260905225859 19 0.0 0.0 0.00 0.00 0.00 42 885.8
20260905225842 20 0.0 0.0 0.00 0.00 0.00 42 885.8
20260905222458 20 0.0 0.0 0.00 0.00 0.00 42 885.8
20260905222443 22 0.0 0.0 0.00 0.00 0.00 41 885.4
20260905215058 22 0.0 0.0 0.00 0.00 0.00 41 885.4
20260905215041 22 0.0 0.0 0.00 0.00 0.00 41 885.2
20260905211659 22 0.0 0.0 0.00 0.00 0.00 41 885.2
20260905211641 22 0.0 0.0 0.00 0.00 0.00 41 885.1
20260905204359 22 0.0 0.0 0.00 0.00 0.00 41 885.1
20260905204340 23 0.0 0.0 0.00 0.00 0.00 41 884.9
20260905201056 23 0.0 0.0 0.00 0.00 0.00 41 884.9
20260905201039 23 0.0 0.0 0.00 0.00 0.00 41 885.0
20260905193856 23 0.0 0.0 0.00 0.00 0.00 41 885.0
20260905193839 23 0.0 0.0 0.00 0.00 0.00 41 884.8
20260905190556 23 0.0 0.0 0.00 0.00 0.00 41 884.8
20260905190538 23 0.0 0.0 0.00 0.00 0.00 41 884.8
20260905183155 23 0.0 0.0 0.00 0.00 0.00 41 884.8
20260905183138 22 0.0 0.0 0.00 0.00 0.00 42 884.5
20260905175755 22 0.0 0.0 0.00 0.00 0.00 42 884.5
20260905175737 23 0.0 0.0 0.00 0.00 0.00 43 884.3
20260905172354 23 0.0 0.0 0.00 0.00 0.00 43 884.3
20260905172337 26 0.0 0.0 0.00 0.00 0.00 42 884.2
20260905165054 26 0.0 0.0 0.00 0.00 0.00 42 884.2
20260905165036 30 0.0 0.0 0.00 0.00 0.00 41 884.0
20260905161754 30 0.0 0.0 0.00 0.00 0.00 41 884.0
20260905161736 33 0.0 0.0 0.00 0.00 0.00 39 884.1
20260905154253 33 0.0 0.0 0.00 0.00 0.00 39 884.1
20260905154235 32 0.0 0.0 0.00 0.00 0.00 39 884.2
20260905150854 32 0.0 0.0 0.00 0.00 0.00 39 884.2
20260905150835 33 0.0 0.0 0.00 0.00 0.00 40 884.1
20260905143552 33 0.0 0.0 0.00 0.00 0.00 40 884.1
20260905143535 34 0.0 0.0 0.00 0.00 0.00 39 884.1
20260905140352 34 0.0 0.0 0.00 0.00 0.00 39 884.1
20260905140333 35 0.0 0.0 0.00 0.00 0.00 40 884.4
20260905140155 35 0.0 0.0 0.00 0.00 0.00 40 884.4
20260905133352 35 0.0 0.0 0.00 0.00 0.00 40 884.4
20260905133331 37 0.0 0.0 0.00 0.00 0.00 40 884.4
20260905130151 37 0.0 0.0 0.00 0.00 0.00 40 884.4
20260905130031 37 0.0 0.0 0.00 0.00 0.00 40 884.7
20260905122849 37 0.0 0.0 0.00 0.00 0.00 40 884.7
20260905122729 37 0.0 0.0 0.00 0.00 0.00 40 884.9
20260905115550 37 0.0 0.0 0.00 0.00 0.00 40 884.9
20260905115428 36 0.0 0.0 0.00 0.00 0.00 41 884.9
20260905112149 36 0.0 0.0 0.00 0.00 0.00 41 884.9
20260905112128 32 0.0 0.0 0.00 0.00 0.00 43 885.0
20260905104748 32 0.0 0.0 0.00 0.00 0.00 43 885.0
20260905104727 31 0.0 0.0 0.00 0.00 0.00 41 885.0
20260905101248 31 0.0 0.0 0.00 0.00 0.00 41 885.0
20260905101226 28 0.0 0.0 0.00 0.00 0.00 40 885.0
20260905093647 28 0.0 0.0 0.00 0.00 0.00 40 885.0
20260905093625 22 0.0 0.0 0.00 0.00 0.00 44 885.2
20260905090147 22 0.0 0.0 0.00 0.00 0.00 44 885.2
20260905090125 22 0.0 0.0 0.00 0.00 0.00 44 885.1
20260905082646 22 0.0 0.0 0.00 0.00 0.00 44 885.1
20260905082624 22 0.0 0.0 0.00 0.00 0.00 45 885.1
20260905075246 22 0.0 0.0 0.00 0.00 0.00 45 885.1
20260905075224 21 0.0 0.0 0.00 0.00 0.00 46 885.0
20260905071746 21 0.0 0.0 0.00 0.00 0.00 46 885.0
20260905071723 21 0.0 0.0 0.00 0.00 0.00 46 884.9
20260905064245 21 0.0 0.0 0.00 0.00 0.00 46 884.9
20260905064222 21 0.0 0.0 0.00 0.00 0.00 45 884.8